Location: Balaclava NSW 2575, Australia
(34.4510°S, 150.4953°E)
Time: 01:07:59
(UTC+10:00)

A-11 Canister half - Pass Details

Date: 20 June 2021
Orbit: 1513 x 1687 km, 47.2° (Epoch: 28 July)

Event Time Altitude Azimuth Distance (km) Brightness Sun altitude
Rises 18:03:05 0° 269° (W) 4,697 13.0 -13.7°
Reaches altitude 10° 18:06:22 10° 262° (W) 3,736 12.0 -14.3°
Maximum altitude 18:15:14 42° 192° (SSW) 2,140 9.7 -16.0°
Enters shadow 18:21:56 19° 132° (SE) 3,190 10.1 -17.4°
